User: anonymous   Login
Location: Kalberh�ni
(46.4610°N, 7.2453°E)
Time: 08:06:08
(UTC+00:00)
Language:

Cosmos 2322 - Orbit

View from above orbital plane
View from above orbital plane
View from above satellite
View from above satellite

Ground track
Ground track

The orbit data is extracted from the following two-line orbital elements,

1 23704U 95058A   21300.46532915  .00000003  00000-0  27112-4 0  9994
2 23704  70.9844 304.1601 0010396 215.3816 144.6617 14.13448943340760
Epoch (UTC): 27 October 2021 11:10:04
Eccentricity: 0.0010396
inclination: 70.9844°
perigee height: 840 km
apogee height: 855 km
right ascension of ascending node: 304.1601°
argument of perigee: 215.3816°
revolutions per day: 14.13448943
mean anomaly at epoch: 144.6617°
orbit number at epoch: 34076

The dashed part of the orbit path shows where the satellite is in the earth's shadow,  

DLR